IK2ILW-6 Weather Reports


time (UTC)temp
F
wind
direction
speed
knots
gust
knots
rain 1hr
in
rain 24hr
in
rain mn
in
humidity
%
barometer
mb
20260902185145 58 360 8.7 12.2 0.00 0.00 0.00 75 1026.7
20260902184639 58 360 4.3 8.7 0.00 0.00 0.00 76 1026.5
20260902184131 58 360 5.2 10.4 0.00 0.00 0.00 79 1026.5
20260902183624 58 360 7.0 10.4 0.00 0.00 0.00 79 1026.4
20260902183142 58 360 4.3 8.7 0.00 0.00 0.00 80 1026.3
20260902182639 58 360 5.2 8.7 0.00 0.00 0.00 81 1026.4
20260902182134 58 360 5.2 8.7 0.00 0.00 0.00 82 1026.3
20260902181627 57 360 3.5 10.4 0.00 0.00 0.00 83 1026.1
20260902181142 57 360 4.3 10.4 0.00 0.00 0.00 83 1026.1
20260902180640 57 360 5.2 11.3 0.00 0.00 0.00 83 1026.2
20260902180133 58 360 7.8 11.3 0.00 0.00 0.00 83 1026.2
20260902175627 58 360 7.8 11.3 0.00 0.00 0.00 83 1026.0
20260902174638 57 360 7.0 10.4 0.00 0.00 0.00 86 1026.0
20260902174132 57 360 3.5 7.0 0.00 0.00 0.00 86 1025.9
20260902173625 57 360 2.6 4.3 0.00 0.00 0.00 87 1025.9
20260902173141 58 360 0.9 2.6 0.00 0.00 0.00 87 1026.0
20260902172634 58 360 0.0 0.0 0.00 0.00 0.00 89 1026.0
20260902172128 58 360 0.0 0.0 0.00 0.00 0.00 90 1026.0
20260902171623 57 360 0.0 0.0 0.00 0.00 0.00 90 1026.0
20260902171136 57 360 0.0 2.6 0.00 0.00 0.00 90 1026.0
20260902170625 57 360 0.9 3.5 0.00 0.00 0.00 90 1026.0
20260902170141 57 360 1.7 3.5 0.00 0.00 0.00 90 1026.1
20260902165630 57 360 0.9 3.5 0.00 0.00 0.00 90 1026.0
20260902165123 57 360 2.6 4.3 0.00 0.00 0.00 91 1026.0
20260902164644 57 360 2.6 7.0 0.00 0.00 0.00 90 1026.0
20260902164139 58 360 3.5 7.0 0.00 0.00 0.00 90 1026.0
20260902163636 58 360 2.6 4.3 0.00 0.00 0.00 89 1026.0
20260902163129 58 360 2.6 5.2 0.00 0.00 0.00 89 1026.0
20260902162624 58 360 0.9 5.2 0.00 0.00 0.00 89 1026.1
20260902161128 59 360 2.6 5.2 0.00 0.00 0.00 88 1026.0
20260902160643 59 360 2.6 7.0 0.00 0.00 0.00 89 1026.1
20260902160137 59 360 1.7 7.0 0.00 0.00 0.00 87 1026.1
20260902155625 59 360 2.6 4.3 0.00 0.00 0.00 87 1026.1
20260902155141 59 360 1.7 7.0 0.00 0.00 0.00 86 1026.1
20260902154638 59 360 2.6 7.0 0.00 0.00 0.00 87 1026.1
20260902154131 60 360 0.9 4.3 0.00 0.00 0.00 85 1026.1
20260902153625 60 360 3.5 7.0 0.00 0.00 0.00 83 1026.1
20260902153126 61 360 3.5 7.0 0.00 0.00 0.00 82 1026.2
20260902152641 61 360 0.0 4.3 0.00 0.00 0.00 83 1026.1
20260902152139 60 360 0.9 5.2 0.00 0.00 0.00 85 1026.1
20260902151638 60 360 1.7 5.2 0.00 0.00 0.00 85 1026.2
20260902151130 60 360 0.9 5.2 0.00 0.00 0.00 84 1026.2
20260902150643 61 360 2.6 5.2 0.00 0.00 0.00 83 1026.2
20260902150141 61 360 2.6 8.7 0.00 0.00 0.00 85 1026.3
20260902145641 60 360 4.3 8.7 0.00 0.00 0.00 85 1026.4
20260902145140 61 360 0.9 7.0 0.00 0.00 0.00 83 1026.4
20260902144636 61 360 1.7 7.8 0.00 0.00 0.00 84 1026.4
20260902144141 60 360 1.7 7.8 0.00 0.00 0.00 86 1026.4
20260902143630 60 360 3.5 7.8 0.00 0.00 0.00 85 1026.4
20260902143123 60 360 4.3 7.8 0.00 0.00 0.00 85 1026.4
20260902142636 60 360 0.9 5.2 0.00 0.00 0.00 85 1026.4
20260902142127 58 360 0.0 4.3 0.00 0.00 0.00 90 1026.4
20260902141642 58 360 0.0 4.3 0.00 0.00 0.00 89 1026.5
20260902141130 58 360 2.6 3.5 0.00 0.00 0.00 89 1026.6
20260902140624 58 360 1.7 3.5 0.00 0.00 0.00 88 1026.6
20260902140123 58 360 0.0 4.3 0.00 0.00 0.00 88 1026.6
20260902135643 58 360 1.7 5.2 0.00 0.00 0.00 88 1026.6
20260902135137 59 360 2.6 5.2 0.00 0.00 0.00 87 1026.7
20260902134634 59 360 0.0 4.3 0.00 0.00 0.00 87 1026.6
20260902134124 59 360 1.7 7.0 0.00 0.00 0.00 87 1026.7
20260902133646 59 360 2.6 7.0 0.00 0.00 0.00 88 1026.8
20260902133137 59 360 2.6 7.8 0.00 0.00 0.00 87 1026.9
20260902132637 59 360 2.6 7.8 0.00 0.00 0.00 86 1026.8
20260902132131 59 360 1.7 7.0 0.00 0.00 0.00 87 1026.9
20260902131623 59 360 3.5 7.0 0.00 0.00 0.00 86 1026.9
20260902131137 59 360 1.7 5.2 0.00 0.00 0.00 87 1026.9
20260902130634 59 360 1.7 7.0 0.00 0.00 0.00 86 1026.8
20260902130127 59 360 2.6 8.7 0.00 0.00 0.00 87 1027.0
20260902125622 59 360 2.6 8.7 0.00 0.00 0.00 89 1026.9
20260902125141 58 360 2.6 10.4 0.00 0.00 0.00 89 1027.0
20260902124640 58 360 5.2 10.4 0.00 0.00 0.00 89 1027.0
20260902124139 58 360 4.3 11.3 0.00 0.00 0.00 90 1027.1
20260902123641 59 360 5.2 11.3 0.00 0.00 0.00 86 1027.2
20260902123141 59 360 5.2 10.4 0.00 0.00 0.00 87 1027.1
20260902122638 59 360 2.6 13.9 0.00 0.00 0.00 89 1027.1
20260902122134 59 360 7.8 13.9 0.00 0.00 0.00 90 1027.0
20260902121633 59 360 8.7 13.9 0.00 0.00 0.00 88 1027.0
20260902121125 59 360 2.6 12.2 0.00 0.00 0.00 86 1027.1
20260902120640 59 360 4.3 13.9 0.00 0.00 0.00 88 1027.2
20260902120137 59 360 7.0 13.9 0.00 0.00 0.00 89 1027.2
20260902115633 59 360 3.5 11.3 0.00 0.00 0.00 87 1027.2
20260902115126 59 360 2.6 11.3 0.00 0.00 0.00 85 1027.1
20260902114641 59 360 5.2 11.3 0.00 0.00 0.00 85 1027.1
20260902114143 59 360 4.3 11.3 0.00 0.00 0.00 85 1027.2
20260902113641 59 360 5.2 10.4 0.00 0.00 0.00 86 1027.2
20260902113141 58 360 3.5 10.4 0.00 0.00 0.00 87 1027.1
20260902112638 58 360 2.6 7.8 0.00 0.00 0.00 86 1027.1
20260902112142 58 360 4.3 8.7 0.00 0.00 0.00 85 1027.2
20260902111641 58 360 4.3 8.7 0.00 0.00 0.00 81 1027.2
20260902111134 58 360 2.6 7.8 0.00 0.00 0.00 82 1027.2
20260902110627 58 360 3.5 7.0 0.00 0.00 0.00 84 1027.2
20260902110123 58 360 0.9 10.4 0.00 0.00 0.00 85 1027.2
20260902105642 58 360 3.5 10.4 0.00 0.00 0.00 84 1027.3
20260902105142 57 360 3.5 10.4 0.00 0.00 0.00 86 1027.3
20260902104642 57 360 3.5 8.7 0.00 0.00 0.00 88 1027.4
20260902104140 57 360 1.7 7.0 0.00 0.00 0.00 87 1027.5
20260902103641 57 360 2.6 7.8 0.00 0.00 0.00 87 1027.5
20260902103140 57 360 4.3 8.7 0.00 0.00 0.00 87 1027.5
20260902102640 57 360 1.7 8.7 0.00 0.00 0.00 86 1027.5
20260902102137 57 360 0.9 8.7 0.00 0.00 0.00 88 1027.5
20260902101636 58 360 3.5 8.7 0.00 0.00 0.00 89 1027.4
20260902101135 57 360 2.6 8.7 0.00 0.00 0.00 89 1027.5
20260902100629 58 360 2.6 7.0 0.00 0.00 0.00 87 1027.6
20260902100123 58 360 2.6 9.6 0.00 0.00 0.00 87 1027.6
20260902095640 57 360 3.5 9.6 0.00 0.00 0.00 88 1027.5
20260902095133 57 360 3.5 7.8 0.00 0.00 0.00 89 1027.6
20260902094624 57 360 1.7 7.0 0.00 0.00 0.00 91 1027.5
20260902094139 57 360 0.9 10.4 0.00 0.00 0.00 88 1027.6
20260902093631 57 360 2.6 7.8 0.00 0.00 0.00 87 1027.6
20260902093123 57 360 1.7 7.0 0.00 0.00 0.00 89 1027.5
20260902092642 57 360 2.6 7.0 0.00 0.00 0.00 89 1027.5
20260902092137 57 360 1.7 5.2 0.00 0.00 0.00 87 1027.5
20260902091634 58 360 1.7 5.2 0.00 0.00 0.00 83 1027.5
20260902091141 58 360 2.6 5.2 0.00 0.00 0.00 79 1027.4
20260902090630 57 360 0.9 4.3 0.00 0.00 0.00 82 1027.5
20260902090135 57 360 0.9 4.3 0.00 0.00 0.00 88 1027.5
20260902085627 57 360 1.7 3.5 0.00 0.00 0.00 87 1027.5
20260902085124 56 360 0.0 4.3 0.00 0.00 0.00 87 1027.5
20260902084639 56 360 0.9 4.3 0.00 0.00 0.00 87 1027.5
20260902084138 56 360 0.9 3.5 0.00 0.00 0.00 90 1027.5
20260902083641 56 360 1.7 2.6 0.00 0.00 0.00 89 1027.5
20260902083133 56 360 0.0 2.6 0.00 0.00 0.00 91 1027.4
20260902082625 56 360 0.0 4.3 0.00 0.00 0.00 90 1027.3
20260902082141 57 360 0.0 4.3 0.00 0.00 0.00 88 1027.3
20260902081641 57 360 0.0 4.3 0.00 0.00 0.00 87 1027.3
20260902081131 57 360 0.0 3.5 0.00 0.00 0.00 80 1027.3
20260902080623 58 360 0.9 4.3 0.00 0.00 0.00 78 1027.2
20260902080142 58 360 0.9 4.3 0.00 0.00 0.00 83 1027.2
20260902075638 58 360 1.7 3.5 0.00 0.00 0.00 81 1027.1
20260902075133 57 360 0.0 3.5 0.00 0.00 0.00 78 1027.1
20260902074624 57 360 0.9 3.5 0.00 0.00 0.00 77 1027.0
20260902074144 57 360 0.9 2.6 0.00 0.00 0.00 81 1027.0
20260902073641 56 360 0.0 3.5 0.00 0.00 0.00 82 1027.1
20260902073137 56 360 0.9 3.5 0.00 0.00 0.00 82 1027.0
20260902072634 56 360 1.7 3.5 0.00 0.00 0.00 81 1026.9
20260902072128 56 360 0.0 1.7 0.00 0.00 0.00 82 1026.9
20260902071622 56 360 0.0 0.0 0.00 0.00 0.00 83 1026.9
20260902071140 56 360 0.0 1.7 0.00 0.00 0.00 81 1026.9
20260902070636 56 360 0.0 1.7 0.00 0.00 0.00 84 1026.9
20260902070130 56 360 0.0 1.7 0.00 0.00 0.00 85 1026.8
20260902065624 56 360 0.0 1.7 0.00 0.00 0.00 81 1026.8
20260902065141 55 360 0.0 1.7 0.00 0.00 0.00 81 1026.7
20260902064640 55 360 0.9 2.6 0.00 0.00 0.00 81 1026.6
20260902064136 56 360 0.0 3.5 0.00 0.00 0.00 81 1026.7
20260902063634 56 360 0.0 0.0 0.00 0.00 0.00 79 1026.7
20260902063123 55 360 0.0 7.8 0.00 0.00 0.00 82 1026.6
20260902062642 54 360 0.9 7.8 0.00 0.00 0.00 83 1026.6
20260902062137 54 360 5.2 7.0 0.00 0.00 0.00 83 1026.6
20260902061627 54 360 3.5 7.0 0.00 0.00 0.00 87 1026.6
20260902061142 53 360 3.5 7.0 0.00 0.00 0.00 89 1026.7
20260902060642 53 360 2.6 5.2 0.00 0.00 0.00 91 1026.7
20260902060136 52 360 0.9 3.5 0.00 0.00 0.00 92 1026.7
20260902055633 52 360 0.0 2.6 0.00 0.00 0.00 93 1026.7
20260902055130 52 360 0.0 4.3 0.00 0.00 0.00 93 1026.6
20260902054624 52 360 0.9 4.3 0.00 0.00 0.00 93 1026.5
20260902054142 52 360 1.7 3.5 0.00 0.00 0.00 93 1026.6
20260902053642 52 360 0.0 1.7 0.00 0.00 0.00 91 1026.5
20260902053137 52 360 0.0 3.5 0.00 0.00 0.00 91 1026.4
20260902052625 53 360 1.7 3.5 0.00 0.00 0.00 89 1026.2
20260902052143 53 360 2.6 3.5 0.00 0.00 0.00 87 1026.3
20260902051639 53 360 2.6 3.5 0.00 0.00 0.00 87 1026.2
20260902051124 52 360 0.0 3.5 0.00 0.00 0.00 90 1026.3
20260902050640 52 360 2.6 3.5 0.00 0.00 0.00 93 1026.3
20260902050133 52 360 0.0 0.0 0.00 0.00 0.00 92 1026.3
20260902045623 53 360 0.0 3.5 0.00 0.00 0.00 91 1026.3
20260902045142 53 360 0.0 3.5 0.00 0.00 0.00 90 1026.4
20260902044635 54 360 2.6 3.5 0.00 0.00 0.00 81 1026.3
20260902044127 54 360 1.7 2.6 0.00 0.00 0.00 75 1026.3
20260902043643 55 360 0.0 2.6 0.00 0.00 0.00 71 1026.3
20260902043133 55 360 1.7 3.5 0.00 0.00 0.00 73 1026.2
20260902042623 55 360 1.7 3.5 0.00 0.00 0.00 73 1026.2
20260902042137 55 360 2.6 4.3 0.00 0.00 0.00 72 1026.3
20260902041627 55 360 1.7 4.3 0.00 0.00 0.00 75 1026.2
20260902041140 55 360 2.6 4.3 0.00 0.00 0.00 73 1026.2
20260902040634 55 360 1.7 5.2 0.00 0.00 0.00 74 1026.2
20260902040124 55 360 2.6 7.8 0.00 0.00 0.00 73 1026.4
20260902035639 55 360 3.5 7.8 0.00 0.00 0.00 72 1026.4
20260902035132 55 360 3.5 7.8 0.00 0.00 0.00 72 1026.3
20260902034625 55 360 4.3 7.8 0.00 0.00 0.00 73 1026.3
20260902034146 55 360 4.3 8.7 0.00 0.00 0.00 72 1026.3
20260902033638 55 360 5.2 9.6 0.00 0.00 0.00 72 1026.2
20260902033126 55 360 5.2 9.6 0.00 0.00 0.00 72 1026.2
20260902032642 55 360 4.3 8.7 0.00 0.00 0.00 71 1026.3
20260902032138 55 360 3.5 8.7 0.00 0.00 0.00 72 1026.3
20260902031624 55 360 2.6 9.6 0.00 0.00 0.00 74 1026.4
20260902031136 55 360 4.3 9.6 0.00 0.00 0.00 71 1026.4
20260902030624 55 360 7.0 8.7 0.00 0.00 0.00 73 1026.3
20260902030138 55 360 7.0 8.7 0.00 0.00 0.00 76 1026.4
20260902025632 55 360 6.1 8.7 0.00 0.00 0.00 75 1026.4
20260902025125 55 360 3.5 10.4 0.00 0.00 0.00 73 1026.4
20260902024640 55 360 6.1 10.4 0.00 0.00 0.00 76 1026.4
20260902024127 55 360 7.8 10.4 0.00 0.00 0.00 74 1026.4
20260902023623 55 360 5.2 9.6 0.00 0.00 0.00 72 1026.4
20260902023137 55 360 7.0 9.6 0.00 0.00 0.00 75 1026.4
20260902022623 55 360 7.8 9.6 0.00 0.00 0.00 75 1026.4
20260902022138 55 360 6.1 8.7 0.00 0.00 0.00 73 1026.6
20260902021626 55 360 6.1 9.6 0.00 0.00 0.00 73 1026.5
20260902021142 55 360 6.1 10.4 0.00 0.00 0.00 74 1026.4
20260902020636 55 360 7.0 10.4 0.00 0.00 0.00 76 1026.4
20260902020124 55 360 9.6 10.4 0.00 0.00 0.00 74 1026.4
20260902015641 55 360 8.7 10.4 0.00 0.00 0.00 74 1026.4
20260902015134 55 360 8.7 10.4 0.00 0.00 0.00 75 1026.4
20260902014625 55 360 8.7 11.3 0.00 0.00 0.00 78 1026.4
20260902014145 55 360 7.8 10.4 0.00 0.00 0.00 80 1026.4
20260902013636 54 360 7.0 8.7 0.00 0.00 0.00 82 1026.5
20260902013124 54 360 7.0 8.7 0.00 0.00 0.00 85 1026.5
20260902012642 54 360 7.8 9.6 0.00 0.00 0.00 86 1026.5
20260902012134 54 360 7.0 9.6 0.00 0.00 0.00 87 1026.6
20260902011628 54 360 6.1 10.4 0.00 0.00 0.00 84 1026.6
20260902011142 55 360 8.7 10.4 0.00 0.00 0.00 82 1026.6
20260902010637 55 360 5.2 9.6 0.00 0.00 0.00 76 1026.6
20260902010131 55 360 5.2 11.3 0.00 0.00 0.00 80 1026.6
20260902005623 55 360 8.7 12.2 0.00 0.00 0.00 83 1026.6
20260902005144 55 360 8.7 13.0 0.00 0.00 0.00 84 1026.6
20260902004635 55 360 10.4 13.0 0.00 0.00 0.00 84 1026.6
20260902004127 55 360 10.4 12.2 0.00 0.00 0.00 83 1026.6
20260902003640 55 360 8.7 11.3 0.00 0.00 0.00 82 1026.6
20260902003132 55 360 7.8 10.4 0.00 0.00 0.00 83 1026.6
20260902002623 55 360 8.7 9.6 0.00 0.00 0.00 82 1026.6
20260902002135 55 360 7.0 9.6 0.00 0.00 0.00 84 1026.7
20260902001626 55 360 7.8 9.6 0.00 0.00 0.00 82 1026.7
20260902001135 55 360 7.0 8.7 0.00 0.00 0.00 82 1026.7
20260902000624 55 360 5.2 9.6 0.00 0.00 0.00 84 1026.8
20260902000139 55 360 7.0 9.6 0.00 0.00 0.00 82 1026.9
20260901235632 55 360 5.2 8.7 0.00 0.00 0.00 86 1026.8
20260901235123 55 360 5.2 8.7 0.00 0.00 0.00 84 1026.9
20260901234641 55 360 5.2 7.8 0.00 0.00 0.00 82 1026.8
20260901234137 55 360 4.3 7.8 0.00 0.00 0.00 82 1026.8
20260901233623 55 360 3.5 10.4 0.00 0.00 0.00 80 1026.9
20260901233141 55 360 7.8 12.2 0.00 0.00 0.00 83 1026.8
20260901232634 55 360 7.8 12.2 0.00 0.00 0.00 80 1026.8
20260901232125 55 360 8.7 12.2 0.00 0.00 0.00 82 1026.8
20260901231642 55 360 7.8 12.2 0.00 0.00 0.00 80 1026.8
20260901231125 55 360 7.0 10.4 0.00 0.00 0.00 84 1027.0
20260901230640 55 360 7.0 13.0 0.00 0.00 0.00 85 1027.1
20260901230132 55 360 7.0 13.9 0.00 0.00 0.00 86 1027.0
20260901225624 55 360 10.4 13.9 0.00 0.00 0.00 85 1026.9
20260901225142 55 360 8.7 12.2 0.00 0.00 0.00 84 1026.9
20260901224632 55 360 8.7 12.2 0.00 0.00 0.00 81 1026.9
20260901224124 55 360 9.6 12.2 0.00 0.00 0.00 81 1026.9
20260901223640 55 360 10.4 12.2 0.00 0.00 0.00 83 1026.9
20260901223134 55 360 10.4 13.9 0.00 0.00 0.00 84 1026.9
20260901222627 55 360 10.4 13.9 0.00 0.00 0.00 86 1026.9
20260901222144 54 360 9.6 12.2 0.00 0.00 0.00 86 1026.9
20260901221637 54 360 7.8 10.4 0.00 0.00 0.00 88 1027.1
20260901221124 54 360 7.0 9.6 0.00 0.00 0.00 88 1027.1
20260901220640 54 360 5.2 7.0 0.00 0.00 0.00 89 1027.2
20260901220130 54 360 3.5 5.2 0.00 0.00 0.00 90 1027.3
20260901215624 54 360 0.0 2.6 0.00 0.00 0.00 92 1027.3
20260901215141 54 360 0.9 2.6 0.00 0.00 0.00 94 1027.3
20260901214643 54 360 0.0 3.5 0.00 0.00 0.00 95 1027.3
20260901214124 54 360 0.9 3.5 0.00 0.00 0.00 95 1027.3
20260901213645 54 360 0.0 0.0 0.00 0.00 0.00 95 1027.3
20260901213141 54 360 0.0 0.0 0.00 0.00 0.00 95 1027.2
20260901212640 54 360 0.0 4.3 0.00 0.00 0.00 95 1027.2
20260901212139 54 360 0.9 4.3 0.00 0.00 0.00 95 1027.2
20260901211628 54 360 0.0 4.3 0.00 0.00 0.00 95 1027.3
20260901211135 54 360 0.0 4.3 0.00 0.00 0.00 96 1027.3
20260901210625 54 360 0.0 3.5 0.00 0.00 0.00 96 1027.3
20260901210146 54 360 0.0 3.5 0.00 0.00 0.00 95 1027.3
20260901205646 54 360 0.9 3.5 0.00 0.00 0.00 95 1027.3
20260901205141 54 360 0.0 3.5 0.00 0.00 0.00 95 1027.3
20260901204640 54 360 0.9 4.3 0.00 0.00 0.00 95 1027.3
20260901204128 55 360 2.6 5.2 0.00 0.00 0.00 95 1027.3
20260901203625 54 360 0.9 5.2 0.00 0.00 0.00 94 1027.3
20260901203143 54 360 0.0 4.3 0.00 0.00 0.00 94 1027.3
20260901202636 54 360 2.6 4.3 0.00 0.00 0.00 93 1027.2
20260901202132 54 360 1.7 3.5 0.00 0.00 0.00 93 1027.2
20260901201625 54 360 0.0 3.5 0.00 0.00 0.00 94 1027.2
20260901201135 54 360 1.7 4.3 0.00 0.00 0.00 94 1027.2
20260901200626 54 360 0.9 4.3 0.00 0.00 0.00 95 1027.3
20260901200142 54 360 0.9 2.6 0.00 0.00 0.00 95 1027.2
20260901195644 55 360 0.0 0.9 0.00 0.00 0.00 95 1027.3
20260901195139 54 360 0.0 1.7 0.00 0.00 0.00 94 1027.2
20260901194634 54 360 0.0 2.6 0.00 0.00 0.00 94 1027.1
20260901194126 54 360 0.0 2.6 0.00 0.00 0.00 94 1027.0
20260901193644 55 360 0.0 0.0 0.00 0.00 0.00 94 1027.0
20260901193144 55 360 0.0 0.0 0.00 0.00 0.00 93 1027.0
20260901192641 55 360 0.0 0.0 0.00 0.00 0.00 93 1026.9
20260901192137 55 360 0.0 0.0 0.00 0.00 0.00 92 1027.0
20260901191627 55 360 0.0 0.0 0.00 0.00 0.00 90 1026.9
20260901191139 55 360 0.0 0.0 0.00 0.00 0.00 90 1026.9
20260901190637 55 360 0.0 0.0 0.00 0.00 0.00 90 1026.7
20260901190126 55 360 0.0 0.0 0.00 0.00 0.00 89 1026.7
20260901185644 55 360 0.0 0.0 0.00 0.00 0.00 90 1026.6